Regional Weather Roundup
Issued by NWS

Home | Current Version | Previous Version | Graphics & Text | Print | Product List | Glossary On
Versions: 1 2 3 4 5 6 7 8 9 10 11 12 13 14 15 16 17 18 19 20 21 22 23 24 25 26 27 28 29 30 31 32 33 34 35 36 37 38 39 40 41 42 43 44 45 46 47 48 49 50
538
ASUS43 KFSD 231502
RWRSD

WEATHER ROUNDUP FOR SOUTH DAKOTA
NATIONAL WEATHER SERVICE SIOUX FALLS SD
1000 AM CDT WED MAY 23 2018

NOTE: "FAIR" INDICATES FEW OR NO CLOUDS BELOW 12,000 FEET WITH NO
SIGNIFICANT WEATHER AND/OR OBSTRUCTIONS TO VISIBILITY.


SDZ001>005-009-010-012>017-231600-
NORTHWEST AND NORTH CENTRAL SOUTH DAKOTA

CITY           SKY/WX    TMP DP  RH WIND       PRES   REMARKS
BUFFALO          N/A     67  57  70 SE13      29.85S
FAITH            N/A     64  61  90 E8        29.91S
MOBRIDGE       PTSUNNY   71  63  75 SE21G29   29.88F
$$

SDZ012>016-024>037-041>051-057-063-072>074-231600-
SOUTHWEST AND SOUTH CENTRAL SOUTH DAKOTA

CITY           SKY/WX    TMP DP  RH WIND       PRES   REMARKS
RAPID CTY ARPT MOSUNNY   63  59  87 CALM      29.93S
PIERRE         MOSUNNY   71  65  81 SE20      29.87S
CUSTER         SUNNY     59  48  67 VRB5      30.01S
ELLSWORTH AFB  PTSUNNY   63  63 100 CALM      29.92
PHILIP         PTSUNNY   68  63  84 SW7       29.88S
PINE RIDGE     CLOUDY    59  57  93 W9        29.98R
SPEARFISH      FAIR      64  54  68 CALM      29.95S
WINNER         FAIR      75  63  66 SE15      29.92F
$$

SDZ004>011-016>023-039-040-231600-
NORTHEAST SOUTH DAKOTA

CITY           SKY/WX    TMP DP  RH WIND       PRES   REMARKS
ABERDEEN       PTSUNNY   67  64  90 SE10      29.97F
WATERTOWN      CLOUDY    67  62  84 SE9G25    30.05R
BROOKINGS      PTSUNNY   69  62  78 SE17G29   30.05R
SISSETON         N/A     67  65  93 S14       30.00R
$$

SDZ017-020-022-023-036>040-048>070-231600-
SOUTHEAST SOUTH DAKOTA

CITY           SKY/WX    TMP DP  RH WIND       PRES   REMARKS
SIOUX FALLS    CLOUDY    74  66  76 SE18G28   30.03R
HURON          CLOUDY    67  64  90 E8        29.98S
CHAMBERLAIN    PTSUNNY   72  71  96 SE12      29.93F
MITCHELL       CLOUDY    76  67  73 VRB3      29.98R
YANKTON        CLOUDY    78  66  66 S10       29.98S
$$

ABBREVIATIONS USED IN REMARKS
   TC - TEMPERATURE IN CELSIUS
  WCI - WIND CHILL INDEX
   HX - HEAT INDEX
  VSB - VISIBILITY





USA.gov is the U.S. government's official web portal to all federal, state and local government web resources and services.